Date String (YYYY-MM-DD hh:mm:ss) UTC,Instrument flags,Ambient pressure (hPa),Sample flow (lpm),Bypass flow (lpm),Sample temperature (°C),Ambient temperature (°C),ASC tube jacket temperature (°C),LED temperature (°C),Box temperature (°C),Sample RH (%),Span deviation,Mass concentration (μg/m³),Mass concentration (μg/m³),Mass concentration (μg/m³)
DateTimeUTC,F1_M11,P_M11,Q1_M11,Q2_M11,T1_M11,T2_M11,T3_M11,T4_M11,T5_M11,U1_M11,ZSPAN_M11,X0_M11,X2_M11,X1_M11
2022-02-09 20:00:00,,0825.4,5.00,0.00,26.9,26.1,00.0,35.7,28.8,10.7,0000.0,0010.99,0003.93,0003.23
2022-02-09 20:01:00,,0825.4,4.99,0.00,26.9,26.1,00.0,35.8,28.8,10.5,0000.0,0010.72,0003.95,0003.20
2022-02-09 20:02:00,,0825.4,5.02,0.00,26.9,26.1,00.0,35.8,28.8,10.8,0000.0,0010.49,0003.94,0003.19
2022-02-09 20:03:00,,0825.4,4.99,0.00,26.9,26.1,00.0,35.8,28.8,10.8,0000.0,0010.28,0003.95,0003.16
2022-02-09 20:04:00,,0825.4,4.99,0.00,26.9,26.1,00.0,35.8,28.8,10.7,0000.0,0010.33,0003.95,0003.14
2022-02-09 20:05:00,,0825.4,5.02,0.00,26.9,26.1,00.0,35.8,28.8,10.6,0000.0,0011.65,0003.88,0003.12
2022-02-09 20:06:00,,0825.3,5.00,0.00,26.9,26.2,00.0,35.8,28.8,10.4,0000.0,0011.36,0003.83,0003.10
2022-02-09 20:07:00,,0825.3,4.99,0.00,26.9,26.2,00.0,35.8,28.8,10.4,0000.0,0011.27,0003.84,0003.08
2022-02-09 20:08:00,,0825.3,5.01,0.00,26.9,26.2,00.0,35.9,28.8,10.5,0000.0,0011.77,0003.85,0003.07
2022-02-09 20:09:00,,0825.3,5.00,0.00,27.0,26.2,00.0,35.9,28.8,10.8,0000.0,0012.23,0003.88,0003.05
2022-02-09 20:10:00,,0825.3,4.99,0.00,27.0,26.2,00.0,35.9,28.8,10.6,0000.0,0012.23,0003.86,0003.02
2022-02-09 20:11:00,,0825.3,5.02,0.00,27.0,26.2,00.0,35.9,28.8,10.5,0000.0,0012.74,0003.83,0002.98
2022-02-09 20:12:00,,0825.3,4.99,0.00,27.0,26.2,00.0,35.9,28.9,10.5,0000.0,0013.15,0003.79,0002.97
2022-02-09 20:13:00,,0825.3,5.00,0.00,27.0,26.2,00.0,35.9,28.9,10.6,0000.0,0013.44,0003.78,0002.96
2022-02-09 20:14:00,,0825.3,5.01,0.00,27.0,26.3,00.0,35.9,28.9,10.4,0000.0,0013.35,0003.72,0002.93
2022-02-09 20:15:00,,0825.2,4.99,0.00,27.0,26.3,00.0,35.9,28.9,10.6,0000.0,0013.45,0003.71,0002.92
2022-02-09 20:16:00,,0825.2,4.99,0.00,27.0,26.3,00.0,36.0,28.9,10.6,0000.0,0012.31,0003.68,0002.88
2022-02-09 20:17:00,,0825.2,5.02,0.00,27.0,26.3,00.0,36.0,28.9,10.5,0000.0,0012.97,0003.69,0002.86
2022-02-09 20:18:00,,0825.3,4.99,0.00,27.0,26.3,00.0,36.0,28.9,10.6,0000.0,0013.51,0003.64,0002.82
2022-02-09 20:19:00,,0825.2,5.01,0.00,27.1,26.3,00.0,36.0,28.9,10.3,0000.0,0012.83,0003.62,0002.79
2022-02-09 20:20:00,,0825.2,5.01,0.00,27.1,26.3,00.0,36.0,28.9,10.6,0000.0,0012.16,0003.59,0002.78
2022-02-09 20:21:00,,0825.2,4.98,0.00,27.1,26.3,00.0,36.0,28.9,10.7,0000.0,0012.58,0003.63,0002.78
2022-02-09 20:22:00,,0825.2,5.02,0.00,27.1,26.3,00.0,36.0,28.9,10.8,0000.0,0012.18,0003.68,0002.78
2022-02-09 20:23:00,,0825.2,4.99,0.00,27.1,26.3,00.0,36.0,28.9,10.7,0000.0,0012.01,0003.66,0002.78
2022-02-09 20:24:00,,0825.2,4.99,0.00,27.1,26.3,00.0,36.0,28.9,10.8,0000.0,0011.51,0003.63,0002.78
2022-02-09 20:25:00,,0825.2,5.00,0.00,27.1,26.3,00.0,36.0,28.9,10.8,0000.0,0011.45,0003.63,0002.79
2022-02-09 20:26:00,,0825.2,5.01,0.00,27.1,26.3,00.0,36.0,28.9,10.7,0000.0,0012.16,0003.63,0002.80
2022-02-09 20:27:00,,0825.2,4.99,0.00,27.1,26.3,00.0,36.1,28.9,10.7,0000.0,0012.60,0003.66,0002.82
2022-02-09 20:28:00,,0825.2,5.00,0.00,27.1,26.3,00.0,36.1,28.9,10.5,0000.0,0012.07,0003.70,0002.84
2022-02-09 20:29:00,,0825.2,5.01,0.00,27.1,26.3,00.0,36.1,29.0,10.8,0000.0,0011.66,0003.74,0002.88
2022-02-09 20:30:00,,0825.2,4.99,0.00,27.1,26.3,00.0,36.1,29.0,10.8,0000.0,0011.84,0003.75,0002.91
2022-02-09 20:31:00,,0825.1,4.99,0.00,27.1,26.3,00.0,36.1,29.1,10.9,0000.0,0011.34,0003.76,0002.94
2022-02-09 20:32:00,,0825.2,4.99,0.00,27.1,26.3,00.0,36.1,29.0,11.0,0000.0,0010.62,0003.71,0002.96
2022-02-09 20:33:00,,0825.2,5.01,0.00,27.1,26.4,00.0,36.1,29.0,10.7,0000.0,0010.31,0003.66,0003.00
2022-02-09 20:34:00,,0825.1,4.99,0.00,27.2,26.4,00.0,36.1,29.0,10.8,0000.0,0010.42,0003.70,0003.03
2022-02-09 20:35:00,,0825.1,5.00,0.00,27.2,26.4,00.0,36.1,29.0,10.7,0000.0,0011.04,0003.73,0003.07
2022-02-09 20:36:00,,0825.2,4.99,0.00,27.2,26.4,00.0,36.1,29.0,10.7,0000.0,0011.93,0003.75,0003.10
2022-02-09 20:37:00,,0825.2,5.00,0.00,27.2,26.4,00.0,36.1,29.0,10.6,0000.0,0011.07,0003.77,0003.13
2022-02-09 20:38:00,,0825.2,5.00,0.00,27.2,26.4,00.0,36.1,29.0,10.6,0000.0,0010.89,0003.79,0003.15
2022-02-09 20:39:00,,0825.2,4.99,0.00,27.2,26.4,00.0,36.1,29.0,10.7,0000.0,0010.90,0003.80,0003.17
2022-02-09 20:40:00,,0825.2,5.01,0.00,27.2,26.4,00.0,36.1,29.0,10.7,0000.0,0010.52,0003.76,0003.18
2022-02-09 20:41:00,,0825.2,4.99,0.00,27.2,26.5,00.0,36.1,29.1,10.8,0000.0,0009.89,0003.76,0003.20
2022-02-09 20:42:00,,0825.2,5.01,0.00,27.2,26.5,00.0,36.2,29.1,10.7,0000.0,0010.16,0003.77,0003.22
2022-02-09 20:43:00,,0825.2,4.99,0.00,27.2,26.5,00.0,36.2,29.1,10.7,0000.0,0010.67,0003.79,0003.23
2022-02-09 20:44:00,,0825.3,4.99,0.00,27.3,26.5,00.0,36.2,29.1,10.8,0000.0,0011.16,0003.86,0003.24
2022-02-09 20:45:00,,0825.3,5.01,0.00,27.3,26.5,00.0,36.2,29.1,10.7,0000.0,0010.75,0003.85,0003.24
2022-02-09 20:46:00,,0825.3,4.99,0.00,27.3,26.5,00.0,36.2,29.1,10.6,0000.0,0010.30,0003.90,0003.25
2022-02-09 20:47:00,,0825.3,5.00,0.00,27.3,26.5,00.0,36.2,29.1,10.6,0000.0,0009.36,0003.91,0003.25
2022-02-09 20:48:00,,0825.3,5.02,0.00,27.3,26.5,00.0,36.2,29.2,10.5,0000.0,0009.64,0003.93,0003.24
2022-02-09 20:49:00,,0825.3,5.01,0.00,27.3,26.6,00.0,36.2,29.2,10.5,0000.0,0009.21,0003.93,0003.24
2022-02-09 20:50:00,,0825.3,4.99,0.00,27.3,26.6,00.0,36.2,29.2,10.6,0000.0,0009.59,0003.91,0003.23
2022-02-09 20:51:00,,0825.3,5.00,0.00,27.3,26.6,00.0,36.3,29.2,10.7,0000.0,0010.58,0003.92,0003.22
2022-02-09 20:52:00,,0825.3,5.01,0.00,27.3,26.6,00.0,36.3,29.2,10.4,0000.0,0011.40,0003.93,0003.22
2022-02-09 20:53:00,,0825.3,5.01,0.00,27.3,26.6,00.0,36.3,29.2,10.4,0000.0,0011.16,0003.91,0003.20
2022-02-09 20:54:00,,0825.2,4.99,0.00,27.3,26.6,00.0,36.3,29.2,10.4,0000.0,0010.60,0003.89,0003.20
2022-02-09 20:55:00,,0825.2,4.99,0.00,27.4,26.6,00.0,36.3,29.3,10.3,0000.0,0010.26,0003.85,0003.20
2022-02-09 20:56:00,,0825.2,5.02,0.00,27.4,26.6,00.0,36.3,29.2,10.3,0000.0,0010.58,0003.87,0003.21
2022-02-09 20:57:00,,0825.2,4.99,0.00,27.4,26.6,00.0,36.3,29.2,10.4,0000.0,0010.51,0003.84,0003.22
2022-02-09 20:58:00,,0825.3,4.99,0.00,27.4,26.6,00.0,36.3,29.2,10.5,0000.0,0011.08,0003.82,0003.22
2022-02-09 20:59:00,,0825.3,5.02,0.00,27.4,26.6,00.0,36.3,29.3,10.6,0000.0,0011.11,0003.79,0003.23
